Fort Eustis, VA

9:40 PM EST on February 25, 2017 (GMT -0500)
Felker Army Air Field

Weather History for KFAF - October, 2012

Change the Weather History Date:

Saturday, October 27, 2012

  Actual Average Record
Temperature  
Mean Temperature 64 °F -  
Max Temperature 68 °F 65 °F 84 °F (2010)
Min Temperature 60 °F 47 °F 38 °F (2008)
Degree Days  
Heating Degree Days 1    
Growing Degree Days 14 (Base 50)    
Moisture  
Dew Point 60 °F    
Average Humidity 83    
Maximum Humidity 94    
Minimum Humidity 73    
Precipitation  
Precipitation 0.14 in - - ()
Sea Level Pressure  
Sea Level Pressure 29.82 in    
Wind  
Wind Speed 11 mph (NE)    
Max Wind Speed 15 mph    
Max Gust Speed 24 mph    
Visibility 10 miles    
Events Rain    
Averages and records for this station are not official NWS values.
T = Trace of Precipitation, MM = Missing Value Source: NWS Daily Summary

Daily Weather History Graph

Daily Weather History Graph

Search for Another Location

Airport or City:

Trip Planner

Search our weather history database for the weather conditions in past years. The results will help you decide how hot, cold, wet, or windy it might be!

Date:

Astronomy

Oct. 27, 2012 Rise Set
Actual Time 7:26 AM EDT 6:13 PM EDT
Civil Twilight 6:59 AM EDT 6:40 PM EDT
Nautical Twilight 6:28 AM EDT 7:11 PM EDT
Astronomical Twilight 5:58 AM EDT 7:41 PM EDT
Moon 4:57 PM EDT (10/27) 5:21 AM EDT (10/27)
Length of Visible Light 11h 41m
Length of Day
10h 47m
Waxing Gibbous, 96% of the Moon is Illuminated
Oct 27
Waxing Gibbous
Oct 29
Full
Nov 6
Last Quarter
Nov 13
New
Nov 20
First Quarter

Hourly Weather History & Observations

Time (EDT) Temp. Dew Point Humidity Pressure Visibility Wind Dir Wind Speed Gust Speed Precip Events Conditions
12:55 AM 64.4 °F 61.3 °F 90% 29.96 in 10.0 mi NE 9.2 mph - N/A   Clear
1:55 AM 64.2 °F 61.2 °F 90% 29.95 in 10.0 mi ENE 6.9 mph - N/A   Clear
2:55 AM 64.0 °F 61.0 °F 90% 29.92 in 10.0 mi NE 8.1 mph - N/A   Scattered Clouds
3:55 AM 64.2 °F 60.3 °F 87% 29.89 in 10.0 mi ENE 10.4 mph - N/A   Clear
4:55 AM 64.6 °F 59.7 °F 84% 29.88 in 10.0 mi ENE 15.0 mph 21.9 mph N/A   Scattered Clouds
5:55 AM 64.6 °F 59.7 °F 84% 29.87 in 10.0 mi East 13.8 mph 19.6 mph N/A   Clear
6:55 AM 64.8 °F 60.3 °F 85% 29.85 in 10.0 mi NE 9.2 mph - N/A   Scattered Clouds
7:35 AM 64.4 °F 60.8 °F 88% 29.87 in 10.0 mi ENE 6.9 mph - N/A   Mostly Cloudy
7:55 AM 64.6 °F 60.1 °F 85% 29.87 in 10.0 mi NE 9.2 mph - N/A   Mostly Cloudy
8:09 AM 64.4 °F 60.8 °F 88% 29.88 in 10.0 mi ENE 10.4 mph 18.4 mph N/A   Overcast
8:55 AM 65.1 °F 59.9 °F 83% 29.87 in 10.0 mi ENE 11.5 mph 18.4 mph N/A   Scattered Clouds
9:55 AM 66.7 °F 60.6 °F 81% 29.87 in 10.0 mi NE 11.5 mph 24.2 mph N/A   Scattered Clouds
10:22 AM 66.2 °F 60.8 °F 83% 29.87 in 10.0 mi ENE 12.7 mph 19.6 mph N/A   Mostly Cloudy
10:54 AM 68.0 °F 60.8 °F 78% 29.86 in 10.0 mi ENE 9.2 mph - N/A   Mostly Cloudy
10:55 AM 67.1 °F 60.4 °F 79% 29.86 in 10.0 mi ENE 10.4 mph - N/A   Mostly Cloudy
10:59 AM 68.0 °F 60.8 °F 78% 29.86 in 10.0 mi ENE 9.2 mph - N/A   Mostly Cloudy
11:01 AM 68.0 °F 60.8 °F 78% 29.86 in 10.0 mi ENE 15.0 mph 20.7 mph N/A   Mostly Cloudy
11:02 AM 68.0 °F 60.8 °F 78% 29.86 in 10.0 mi ENE 13.8 mph 20.7 mph N/A   Mostly Cloudy
11:40 AM 68.0 °F 60.8 °F 78% 29.86 in 10.0 mi ENE 13.8 mph 24.2 mph N/A   Mostly Cloudy
11:55 AM 67.5 °F 60.6 °F 79% 29.86 in 10.0 mi ENE 9.2 mph 21.9 mph N/A   Mostly Cloudy
12:10 PM 68.0 °F 60.8 °F 78% 29.85 in 10.0 mi NE 11.5 mph 20.7 mph N/A   Mostly Cloudy
12:18 PM 68.0 °F 60.8 °F 78% 29.85 in 10.0 mi NE 11.5 mph 18.4 mph N/A   Mostly Cloudy
12:28 PM 68.0 °F 60.8 °F 78% 29.85 in 10.0 mi NE 13.8 mph 19.6 mph N/A   Mostly Cloudy
12:55 PM 68.0 °F 60.4 °F 77% 29.84 in 10.0 mi ENE 13.8 mph 23.0 mph N/A   Mostly Cloudy
1:14 PM 68.0 °F 60.8 °F 78% 29.83 in 10.0 mi NE 13.8 mph 24.2 mph N/A   Scattered Clouds
1:16 PM 68.0 °F 60.8 °F 78% 29.83 in 10.0 mi NE 12.7 mph 24.2 mph N/A   Mostly Cloudy
1:18 PM 68.0 °F 60.8 °F 78% 29.83 in 10.0 mi NE 11.5 mph 24.2 mph N/A   Scattered Clouds
1:51 PM 68.0 °F 59.0 °F 73% 29.82 in 10.0 mi NE 11.5 mph - N/A   Mostly Cloudy
1:55 PM 67.6 °F 59.9 °F 76% 29.82 in 10.0 mi NE 6.9 mph - N/A   Mostly Cloudy
2:55 PM 67.3 °F 59.7 °F 77% 29.80 in 10.0 mi NE 13.8 mph 19.6 mph N/A   Overcast
3:40 PM 66.2 °F 59.0 °F 78% 29.79 in 10.0 mi NE 12.7 mph 19.6 mph N/A   Light Drizzle
3:55 PM 66.0 °F 59.7 °F 80% 29.79 in 10.0 mi NE 10.4 mph 19.6 mph 0.00 in   Light Drizzle
4:03 PM 66.2 °F 59.0 °F 78% 29.79 in 10.0 mi NE 8.1 mph 17.3 mph N/A   Mostly Cloudy
4:55 PM 65.8 °F 58.6 °F 78% 29.78 in 10.0 mi NE 12.7 mph 18.4 mph 0.00 in   Overcast
5:05 PM 66.2 °F 59.0 °F 78% 29.78 in 10.0 mi NE 10.4 mph 19.6 mph N/A   Overcast
5:23 PM 66.2 °F 59.0 °F 78% 29.77 in 10.0 mi NE 12.7 mph 23.0 mph N/A Rain Light Rain
5:53 PM 64.4 °F 59.0 °F 83% 29.76 in 10.0 mi NE 10.4 mph 24.2 mph N/A   Light Drizzle
5:54 PM 64.4 °F 59.0 °F 83% 29.76 in 10.0 mi NE 8.1 mph 24.2 mph N/A   Mostly Cloudy
5:55 PM 64.8 °F 58.6 °F 81% 29.76 in 10.0 mi NE 8.1 mph 24.2 mph 0.00 in   Mostly Cloudy
6:07 PM 64.4 °F 59.0 °F 83% 29.76 in 10.0 mi NE 11.5 mph 19.6 mph N/A   Light Drizzle
6:19 PM 64.4 °F 59.0 °F 83% 29.76 in 10.0 mi NNE 8.1 mph 21.9 mph N/A Rain Light Rain
6:51 PM 62.6 °F 59.0 °F 88% 29.76 in 10.0 mi NE 9.2 mph 18.4 mph N/A Rain Light Rain
6:55 PM 62.8 °F 58.8 °F 87% 29.76 in 10.0 mi NE 10.4 mph 17.3 mph 0.01 in Rain Light Rain
7:42 PM 62.6 °F 59.0 °F 88% 29.75 in 10.0 mi NNE 12.7 mph 19.6 mph N/A Rain Light Rain
7:55 PM 62.2 °F 58.6 °F 88% 29.76 in 10.0 mi NE 11.5 mph 24.2 mph 0.01 in Rain Light Rain
8:19 PM 62.6 °F 59.0 °F 88% 29.77 in 10.0 mi NE 12.7 mph 17.3 mph N/A Rain Light Rain
8:52 PM 60.8 °F 59.0 °F 94% 29.75 in 10.0 mi NE 9.2 mph 19.6 mph N/A Rain Light Rain
8:55 PM 61.5 °F 58.3 °F 89% 29.76 in 10.0 mi NE 10.4 mph 19.6 mph 0.01 in Rain Light Rain
9:08 PM 60.8 °F 59.0 °F 94% 29.76 in 10.0 mi NE 10.4 mph 17.3 mph N/A Rain Light Rain
9:46 PM 60.8 °F 59.0 °F 94% 29.75 in 10.0 mi NE 11.5 mph 23.0 mph N/A Rain Light Rain
9:55 PM 61.0 °F 58.5 °F 91% 29.74 in 10.0 mi NNE 11.5 mph 23.0 mph 0.01 in Rain Light Rain
10:55 PM 60.8 °F 58.3 °F 91% 29.75 in 10.0 mi NE 11.5 mph 18.4 mph 0.02 in Rain Light Rain
11:55 PM 60.6 °F 58.6 °F 93% 29.73 in 10.0 mi NNE 9.2 mph - 0.08 in Rain Light Rain